Regional Weather Roundup
Issued by NWS

Home | Current Version | Previous Version | Text Only | Print | Product List | Glossary Off
Versions: 1 2 3 4 5 6 7 8 9 10 11 12 13 14 15 16 17 18 19 20 21 22 23 24 25 26 27 28 29 30 31 32 33 34 35 36 37 38 39 40 41 42 43 44 45 46 47 48 49 50

000
ASUS43 KMPX 050110
RWRMN
WEATHER ROUNDUP FOR MINNESOTA
NATIONAL WEATHER SERVICE TWIN CITIES/CHANHASSEN MN
800 PM CDT TUE AUG 04 2015


NOTE: "FAIR" INDICATES FEW OR NO CLOUDS BELOW 12,000 FEET WITH NO
SIGNIFICANT WEATHER AND/OR OBSTRUCTIONS TO VISIBILITY. N/A MEANS
CURRENT SKY AND/OR WEATHER CONDITIONS ARE NOT AVAILABLE.

MNZ060>063-068>070-050200-
   Twin Cities Metro

CITY           SKY/WX    TMP DP  RH WIND       PRES   REMARKS
TWIN CITIES    PTCLDY    78  50  37 W12       29.97S
ST PAUL        PTCLDY    77  53  43 N8        29.97S
CRYSTAL        CLEAR     78  51  38 W5        29.96S
BLAINE         PTCLDY    77  54  44 N6        29.97S
LAKEVILLE      CLEAR     72  55  56 CALM      29.99S
EDEN PRAIRIE   CLEAR     75  54  47 W3        29.97S
SOUTH ST PAUL  MOCLDY    78  49  35 NW6       29.97S
LAKE ELMO      FAIR      75  55  50 CALM      29.99S
$$
MNZ001>005-007-008-013>017-022>024-027-028-050200-
   Northwest Minnesota

CITY           SKY/WX    TMP DP  RH WIND       PRES   REMARKS
BEMIDJI        CLEAR     68  52  56 NE6       30.02R
HALLOCK        CLEAR     72  54  53 NE5       30.00S
ROSEAU         CLEAR     66  57  72 E6        30.02S
WARROAD        CLEAR     66  55  68 E6        30.04R
THIEF RVR FALL CLEAR     72  54  53 NE5       30.01S
CROOKSTON      CLEAR     73  54  49 N3        30.01R
FOSSTON        CLEAR     73  55  53 CALM      30.02R
DETROIT LAKES  CLEAR     72  50  46 CALM      30.02S
MOORHEAD       CLEAR     73  55  53 NE3       29.99F
PARK RAPIDS    CLEAR     75  50  41 N6        30.00S
MAHNOMEN       FAIR      70  57  64 CALM      30.00S
$$
MNZ006-009>011-018-025>026-050200-
   North Central Minnesota

CITY           SKY/WX    TMP DP  RH WIND       PRES   REMARKS
BAUDETTE       CLEAR     66  52  60 N5        30.03R
FLAG ISLAND    CLEAR     66  52  59 E3        30.02S
INTL FALLS     MOCLDY    64  50  60 NE5       30.04R
WASKISH        CLEAR     66  54  63 N5        30.02S
BIG FORK       CLEAR     64  50  59 N3        30.04R
LONGVILLE      CLEAR     68  55  64 CALM      30.01S
GRAND RAPIDS   CLEAR     70  48  46 N6        30.02R
CRANE LAKE     CLOUDY    61  54  77 NE1       30.05R
ORR            MOCLDY    63  46  55 CALM      30.02R
COOK           CLEAR     63  50  63 CALM      30.04R
WALKER         FAIR      68  53  58 NE3       30.01S
$$
MNZ012-019>021-037-050200-
   Northeast Minnesota

CITY           SKY/WX    TMP DP  RH WIND       PRES   REMARKS
DULUTH         PTCLDY    63  50  62 E8        30.01R
ELY            CLOUDY    61  50  67 CALM      30.04R
HIBBING        CLEAR     65  50  58 NE8       30.02R
EVELETH        CLEAR     63  46  55 NE7       30.04R
DULUTH HARBOR  PTCLDY    55  52  88 N9        30.01S
TWO HARBORS    PTCLDY    63  54  72 CALM      30.00S
SILVER BAY     CLEAR     63  50  63 CALM      30.01R
GRAND MARAIS     N/A     51  48  89 SW6       30.01R
G MARAIS ARPRT MOCLDY    55  48  76 W3        30.05R
$$
MNZ029>031-032-039>041-046>048-054>057-064-050200-
   West Central Minnesota

CITY           SKY/WX    TMP DP  RH WIND       PRES   REMARKS
FERGUS FALLS   CLEAR     73  55  53 CALM      29.98S
WHEATON        CLEAR     73  59  60 CALM      29.99S
MORRIS         CLEAR     75  57  53 CALM      29.98S
ALEXANDRIA     CLEAR     75  50  41 N6        30.01S
ELBOW LAKE     FAIR      74  55  52 CALM      29.99S
WADENA         CLEAR     73  54  49 CALM      30.00S
GLENWOOD       CLEAR     73  54  49 CALM      30.01R
APPLETON       CLEAR     79  54  41 CALM      29.98R
BENSON         CLEAR     73  55  53 CALM      29.99R
ORTONVILLE     CLEAR     77  55  47 CALM      29.99R
MADISON        CLEAR     75  61  60 CALM      29.99R
WILLMAR        FAIR      75  61  60 CALM      30.01R
$$
MNZ033>034-036-042>043-049>051-058-059-050200-
   Central Minnesota

CITY           SKY/WX    TMP DP  RH WIND       PRES   REMARKS
ST CLOUD       CLEAR     75  53  46 N3        29.98R
SAUK CENTRE    FAIR      74  52  45 N3        29.99S
PAYNESVILLE    CLEAR     73  53  50 CALM      29.99S
AITKIN         CLEAR     70  55  60 CALM      29.99R
PINE RIVER     CLEAR     72  55  56 NE5       30.03S
BRAINERD       CLEAR     71  54  54 NE8       30.00S
STAPLES        CLEAR     72  54  53 CALM      30.00R
LONG PRAIRIE   FAIR      72  52  49 CALM      30.00S
LITCHFIELD     CLEAR     75  54  46 CALM      30.00R
BUFFALO        CLEAR     76  54  45 W3        29.99S
MAPLE LAKE     CLEAR     73  59  60 CALM      29.99S
$$
MNZ037-044-045-052-053-050200-
   East Central Minnesota

CITY           SKY/WX    TMP DP  RH WIND       PRES   REMARKS
PRINCETON      PTCLDY    75  57  53 NE3       29.98S
MORA           CLEAR     70  54  56 CALM      30.01R
CAMBRIDGE      CLEAR     75  57  53 CALM      29.97S
RUSH CITY      CLEAR     72  56  56 CALM      29.99R
MOOSE LAKE     PTCLDY    70  52  52 NE5       29.98S
HINCKLEY       FAIR      72  59  64 N5        29.99R
CLOQUET        CLEAR     70  48  46 CALM      30.00S
MCGREGOR       CLEAR     70  54  56 CALM      30.01R
$$
MNZ071>073-080-081-089-090-097-098-050200-
   Southwest Minnesota

CITY           SKY/WX    TMP DP  RH WIND       PRES   REMARKS
MONTEVIDEO     PTCLDY    73  57  56 CALM      30.01R
GRANITE FALLS  PTCLDY    76  58  54 NE3       30.00S
CANBY          PTCLDY    73  59  61 E5        30.00S
MARSHALL       PTCLDY    75  54  46 E6        30.02R
REDWOOD FALLS  PTCLDY    77  53  43 SE3       29.99S
OLIVIA         CLEAR     72  52  49 CALM      29.99S
PIPESTONE      PTCLDY    73  59  60 E5        30.02R
WINDOM         MOCLDY    73  55  53 CALM      30.03R
WORTHINGTON    PTCLDY    72  57  60 SE6       30.03R
JACKSON        MOCLDY    72  59  64 SE3       30.04R
TRACY          PTCLDY    73  61  64 CALM      30.01R
SLAYTON        PTCLDY    72  62  71 CALM      30.04R
$$
MNZ065>067-074>077-082>085-091>093-050200-
   South Central Minnesota

CITY           SKY/WX    TMP DP  RH WIND       PRES   REMARKS
MANKATO        PTCLDY    75  50  41 CALM      30.01R
NEW ULM        PTCLDY    75  52  43 CALM      30.00R
ST JAMES       PTCLDY    73  63  68 E3        30.02R
FAIRMONT       MOCLDY    73  55  53 SE3       30.02R
GLENCOE        CLEAR     75  58  55 CALM      29.99R
FARIBAULT      PTCLDY    72  57  60 CALM      30.01R
OWATONNA       PTCLDY    70  61  73 CALM      30.01S
WASECA         PTCLDY    72  63  73 CALM      30.03R
ALBERT LEA     MOCLDY    72  59  64 CALM      30.02R
$$
MNZ078>079-086>088-094>096-050200-
   Southeast Minnesota

CITY           SKY/WX    TMP DP  RH WIND       PRES   REMARKS
ROCHESTER      CLEAR     70  57  63 VRB5      30.02R
RED WING       PTCLDY    73  61  64 CALM      29.97R
STANTON        PTCLDY    74  55  52 W5        29.98S
DODGE CENTER   CLEAR     72  54  53 CALM      30.02R
WINONA         CLEAR     73  54  49 CALM      29.99R
AUSTIN         MOCLDY    73  55  53 CALM      30.02R
PRESTON        PTCLDY    70  55  58 CALM      30.03R
$$
ABBREVIATIONS USED IN REMARKS
   TC - TEMPERATURES IN CELSIUS
  WCI - WIND CHILL INDEX
   HX - HEAT INDEX
  VSB - VISIBILITY
$$


USA.gov is the U.S. government's official web portal to all federal, state and local government web resources and services.